Change the Weather History Date:

Tuesday, March 12, 2013

  Actual Average Record
Temperature  
Mean Temperature 50 °F 44 °F  
Max Temperature 51 °F 51 °F 67 °F (1992)
Min Temperature 49 °F 37 °F 23 °F (1969)
Degree Days  
Heating Degree Days 15 21  
Month to date heating degree days 257 260  
Since 1 July heating degree days 3950 4105  
Cooling Degree Days 0 0  
Month to date cooling degree days 0 0  
Year to date cooling degree days 0 0  
Moisture  
Dew Point 47 °F    
Average Humidity 88    
Maximum Humidity 93    
Minimum Humidity 83    
Precipitation  
Precipitation 5.47 in 0.35 in 5.47 in (2013)
Month to date precipitation 9.63 4.31  
Year to date precipitation 31.74 29.27  
Sea Level Pressure  
Sea Level Pressure 30.05 in    
Wind  
Wind Speed 9 mph (South)    
Max Wind Speed 18 mph    
Max Gust Speed 29 mph    
Visibility 1 miles    
Events Fog , Rain    
T = Trace of Precipitation, MM = Missing Value Source: NWS Daily Summary

Daily Weather History Graph

Daily Weather History Graph

Search for Another Location

Airport or City:

Trip Planner

Search our weather history database for the weather conditions in past years. The results will help you decide how hot, cold, wet, or windy it might be!

Date:

Astronomy

Mar. 12, 2013 Rise Set
Actual Time 7:36 AM PDT 7:19 PM PDT
Civil Twilight 7:05 AM PDT 7:50 PM PDT
Nautical Twilight 6:29 AM PDT 8:26 PM PDT
Astronomical Twilight 5:53 AM PDT 9:03 PM PDT
Moon 7:39 AM PDT (3/12) 8:50 PM PDT (3/12)
Length of Visible Light 12h 44m
Length of Day
11h 43m
New Moon, 1% of the Moon is Illuminated
Mar 12
New Moon
Mar 19
First Quarter
Mar 27
Full
Apr 2
Last Quarter
Apr 10
New

Hourly Weather History & Observations

Time (PDT) Temp. Dew Point Humidity Pressure Visibility Wind Dir Wind Speed Gust Speed Precip Events Conditions
12:03 AM 50.0 °F 46.4 °F 87% 30.11 in 3.0 mi South 9.2 mph 20.7 mph 0.01 in Rain Light Rain
12:17 AM 50.0 °F 46.4 °F 87% 30.11 in 2.5 mi South 9.2 mph 18.4 mph 0.01 in Rain Light Rain
12:22 AM 50.0 °F 46.4 °F 87% 30.11 in 3.0 mi South 11.5 mph 20.7 mph 0.01 in Rain Light Rain
12:38 AM 50.0 °F 46.4 °F 87% 30.11 in 2.5 mi Variable 6.9 mph - 0.02 in Rain Light Rain
12:53 AM 50.0 °F 46.9 °F 89% 30.11 in 2.5 mi South 9.2 mph 21.9 mph 0.03 in Rain Light Rain
1:53 AM 50.0 °F 46.9 °F 89% 30.10 in 1.8 mi South 11.5 mph 18.4 mph 0.02 in Rain Light Rain
2:22 AM 50.0 °F 46.4 °F 87% 30.09 in 2.0 mi South 9.2 mph 18.4 mph 0.02 in Rain Light Rain
2:53 AM 50.0 °F 46.9 °F 89% 30.09 in 2.5 mi South 8.1 mph 21.9 mph 0.03 in Rain Light Rain
3:46 AM 50.0 °F 46.4 °F 87% 30.06 in 1.8 mi South 12.7 mph 26.5 mph 0.03 in Rain Light Rain
3:53 AM 50.0 °F 46.9 °F 89% 30.06 in 1.5 mi South 11.5 mph 26.5 mph 0.03 in Rain Light Rain
4:06 AM 50.0 °F 46.4 °F 87% 30.06 in 1.0 mi South 10.4 mph 21.9 mph 0.01 in Rain Light Rain
4:29 AM 50.0 °F 46.4 °F 87% 30.04 in 1.5 mi South 12.7 mph 24.2 mph 0.04 in Rain Light Rain
4:42 AM 50.0 °F 46.4 °F 87% 30.04 in 2.0 mi South 13.8 mph 25.3 mph 0.05 in Rain Light Rain
4:53 AM 50.0 °F 46.9 °F 89% 30.04 in 2.0 mi South 11.5 mph 23.0 mph 0.07 in Rain Light Rain
5:19 AM 50.0 °F 46.4 °F 87% 30.03 in 1.5 mi South 9.2 mph 24.2 mph 0.04 in Rain Rain
5:42 AM 48.2 °F 46.4 °F 93% 30.03 in 1.5 mi South 15.0 mph 27.6 mph 0.12 in Rain Rain
5:50 AM 48.2 °F 46.4 °F 93% 30.03 in 1.2 mi South 10.4 mph 26.5 mph 0.17 in Rain Rain
5:53 AM 48.9 °F 46.0 °F 90% 30.03 in 1.2 mi South 16.1 mph 24.2 mph 0.19 in Rain Rain
6:11 AM 48.2 °F 46.4 °F 93% 30.03 in 0.8 mi South 15.0 mph 28.8 mph 0.11 in Rain Heavy Rain
6:25 AM 48.2 °F 46.4 °F 93% 30.02 in 1.2 mi South 11.5 mph 25.3 mph 0.16 in Rain Rain
6:53 AM 48.9 °F 46.0 °F 90% 30.03 in 1.2 mi South 10.4 mph 18.4 mph 0.29 in Rain Rain
7:48 AM 48.2 °F 46.4 °F 93% 30.00 in 1.8 mi SSE 10.4 mph 23.0 mph 0.24 in Rain Rain
7:53 AM 48.9 °F 46.0 °F 90% 30.00 in 1.8 mi South 12.7 mph 26.5 mph 0.26 in Rain Rain
8:06 AM 48.2 °F 46.4 °F 93% 30.00 in 1.2 mi South 10.4 mph 25.3 mph 0.05 in Rain Rain
8:10 AM 48.2 °F 46.4 °F 93% 30.00 in 1.5 mi South 12.7 mph 25.3 mph 0.07 in Rain Rain
8:17 AM 48.2 °F 46.4 °F 93% 30.00 in 1.0 mi South 13.8 mph 27.6 mph 0.10 in Rain Rain
8:24 AM 48.2 °F 46.4 °F 93% 30.00 in 0.8 mi South 10.4 mph 27.6 mph 0.12 in Rain Rain
8:32 AM 48.2 °F 46.4 °F 93% 30.00 in 0.5 mi South 11.5 mph 26.5 mph 0.16 in Fog , Rain Rain
8:53 AM 48.9 °F 46.0 °F 90% 30.01 in 0.8 mi South 10.4 mph 26.5 mph 0.23 in Rain Rain
9:53 AM 48.9 °F 46.0 °F 90% 30.03 in 0.5 mi South 11.5 mph 21.9 mph 0.40 in Fog , Rain Rain
10:40 AM 48.2 °F 46.4 °F 93% 30.04 in 0.2 mi South 11.5 mph 19.6 mph 0.36 in Fog , Rain Heavy Rain
10:53 AM 50.0 °F 46.0 °F 86% 30.04 in 0.2 mi Variable 6.9 mph 20.7 mph 0.48 in Fog , Rain Heavy Rain
11:33 AM 50.0 °F 46.4 °F 87% 30.05 in 0.5 mi South 10.4 mph - 0.29 in Fog , Rain Heavy Rain
11:53 AM 50.0 °F 46.9 °F 89% 30.06 in 0.5 mi South 8.1 mph - 0.41 in Fog , Rain Heavy Rain
12:22 PM 50.0 °F 46.4 °F 87% 30.06 in 0.5 mi Variable 6.9 mph 20.7 mph 0.15 in Fog , Rain Rain
12:53 PM 50.0 °F 46.9 °F 89% 30.06 in 0.8 mi Variable 5.8 mph - 0.26 in Rain Rain
1:13 PM 50.0 °F 46.4 °F 87% 30.06 in 0.8 mi SSE 9.2 mph 16.1 mph 0.08 in Rain Rain
1:53 PM 51.1 °F 46.9 °F 86% 30.06 in 0.8 mi Variable 6.9 mph 17.3 mph 0.18 in Rain Light Rain
2:50 PM 51.8 °F 48.2 °F 88% 30.05 in 0.8 mi Variable 6.9 mph - 0.10 in Rain Rain
2:53 PM 51.1 °F 48.0 °F 89% 30.05 in 0.8 mi South 6.9 mph - 0.11 in Rain Rain
3:53 PM 51.1 °F 46.9 °F 86% 30.06 in 0.5 mi Variable 5.8 mph 19.6 mph 0.27 in Fog , Rain Rain
4:53 PM 50.0 °F 46.9 °F 89% 30.06 in 0.8 mi South 9.2 mph - 0.22 in Rain Rain
5:53 PM 50.0 °F 46.9 °F 89% 30.05 in 0.8 mi South 8.1 mph - 0.25 in Rain Light Rain
6:33 PM 50.0 °F 46.4 °F 87% 30.05 in 0.8 mi Variable 6.9 mph - 0.17 in Rain Rain
6:53 PM 50.0 °F 46.9 °F 89% 30.05 in 0.8 mi SSE 9.2 mph 16.1 mph 0.26 in Rain Rain
7:11 PM 50.0 °F 46.4 °F 87% 30.04 in 1.2 mi Variable 6.9 mph - 0.09 in Rain Rain
7:51 PM 50.0 °F 46.4 °F 87% 30.05 in 1.5 mi SSE 9.2 mph - 0.30 in Rain Rain
7:53 PM 50.0 °F 46.9 °F 89% 30.05 in 1.5 mi SSE 9.2 mph - 0.31 in Rain Rain
8:05 PM 50.0 °F 46.4 °F 87% 30.05 in 1.0 mi Variable 3.5 mph - 0.03 in Rain Rain
8:17 PM 50.0 °F 46.4 °F 87% 30.05 in 1.0 mi Variable 3.5 mph - 0.08 in Rain Rain
8:53 PM 50.0 °F 46.9 °F 89% 30.06 in 1.0 mi Variable 4.6 mph - 0.21 in Rain Rain
9:17 PM 50.0 °F 46.4 °F 87% 30.06 in 0.8 mi Variable 5.8 mph - 0.10 in Rain Rain
9:26 PM 50.0 °F 46.4 °F 87% 30.06 in 0.8 mi SSE 9.2 mph - 0.15 in Rain Rain
9:36 PM 50.0 °F 46.4 °F 87% 30.06 in 1.0 mi Variable 4.6 mph - 0.20 in Rain Rain
9:53 PM 50.0 °F 46.9 °F 89% 30.06 in 1.2 mi Variable 5.8 mph - 0.28 in Rain Rain
10:07 PM 50.0 °F 46.4 °F 87% 30.06 in 1.2 mi Variable 4.6 mph - 0.05 in Rain Rain
10:53 PM 50.0 °F 46.9 °F 89% 30.07 in 1.2 mi South 6.9 mph 18.4 mph 0.23 in Rain Rain
11:33 PM 50.0 °F 46.4 °F 87% 30.07 in 1.2 mi Variable 5.8 mph 16.1 mph 0.17 in Rain Rain
11:41 PM 50.0 °F 46.4 °F 87% 30.07 in 1.2 mi Variable 5.8 mph 21.9 mph 0.19 in Rain Rain
11:53 PM 50.0 °F 46.9 °F 89% 30.07 in 1.0 mi South 9.2 mph 21.9 mph 0.24 in Rain Rain